Flag for Canada Weather past 2 weeks in Halton Hills, Ontario, Canada

Now
10 °F

Overcast.


Feels Like: -7 °F
Forecast: -4 / 10 °F
Wind: 16 mph from Northwest

Location: Toronto Pearson International Airport

Current Time: Mar 5, 2015 at 3:18:59 AM

Latest Report: Mar 5, 2015 at 2:00 AM


Visibility: 15 mi

Pressure: 30.24 "Hg

Humidity: 52%

Dew point: -4 °F

Location of Halton HillsLocation

Historic Weather in Halton Hills — Graph

°F

Halton Hills temperature yesterday

Maximum temperature yesterday: 34 °F (at 12:00 AM)
Minimum temperature yesterday: 18 °F (at 11:00 PM)
Average temperature yesterday: 28 °F

Past Weeks' High & Low Weather Summary

 TemperatureHumidityPressure
High34 °F (Mar 3, 10:00 PM)100% (Mar 3, 8:00 PM)30.80 "Hg (Mar 3, 8:00 PM)
Low-9 °F (Feb 20, 3:00 AM)35% (Feb 20, 5:00 PM)29.57 "Hg (Mar 3, 7:00 PM)
Average11 °F67%30.18 "Hg
* Reported Feb 18 2:00 AM — Mar 5 2:00 AM, Halton Hills, Weather by CustomWeather, © 2015

Note: Actual official high and low records may vary slightly from our data, if they occured in-between our weather recording intervals... More about our weather records

Advertising

Halton Hills weather history for previous 24 hours

 ConditionsComfort  
Time TempWeatherWind HumidityBarometerVisibility
2:00 AM
Thu, Mar 5
10 °FOvercast.16 mph52%30.24 "Hg15 mi
1:00 AM12 °FMostly cloudy.25 mph52%30.19 "Hg15 mi
12:00 AM14 °FOvercast.21 mph62%30.16 "Hg15 mi
11:00 PM
Wed, Mar 4
18 °FPassing clouds.20 mph68%30.12 "Hg15 mi
10:00 PM19 °FOvercast.20 mph73%30.05 "Hg15 mi
9:00 PM25 °FMostly cloudy.16 mph63%30.01 "Hg15 mi
8:00 PM25 °FMostly cloudy.15 mph63%29.99 "Hg15 mi
7:00 PM27 °FMostly cloudy.15 mph64%29.96 "Hg15 mi
5:00 PM28 °FBroken clouds.13 mph64%29.91 "Hg15 mi
4:00 PM30 °FCloudy.16 mph59%29.92 "Hg15 mi
3:00 PM30 °FCloudy.13 mph64%29.90 "Hg15 mi
2:00 PM30 °FMore clouds than sun.16 mph69%29.90 "Hg15 mi
1:00 PM32 °FBroken clouds.15 mph55%29.88 "Hg15 mi
12:00 PM32 °FMore clouds than sun.17 mph60%29.88 "Hg15 mi
11:00 AM30 °FBroken clouds.13 mph64%29.89 "Hg15 mi
10:00 AM30 °FMore clouds than sun.15 mph69%29.88 "Hg12 mi
9:00 AM28 °FOvercast.12 mph74%29.88 "Hg12 mi
8:00 AM27 °FMostly cloudy.12 mph80%29.85 "Hg12 mi
7:00 AM25 °FBroken clouds.9 mph74%29.82 "Hg12 mi
6:00 AM27 °FPartly cloudy.9 mph74%29.81 "Hg15 mi
5:00 AM30 °FOvercast.15 mph75%29.78 "Hg15 mi
4:00 AM30 °FOvercast.18 mph75%29.75 "Hg15 mi
3:00 AM32 °FOvercast.15 mph75%29.73 "Hg15 mi
Weather by CustomWeather, © 2015

See weather overviewHow to use our weather pages